TimeCDT,TemperatureF,Dew PointF,Humidity,Sea Level PressureIn,VisibilityMPH,Wind Direction,Wind SpeedMPH,Gust SpeedMPH,PrecipitationIn,Events,Conditions,WindDirDegrees,DateUTC
12:56 AM,59.0,48.9,69,29.74,10.0,Calm,Calm,-,N/A,,Clear,0,2013-05-14 05:56:00
1:56 AM,57.0,48.0,72,29.72,10.0,SSW,4.6,-,N/A,,Clear,200,2013-05-14 06:56:00
2:56 AM,55.0,48.0,77,29.72,10.0,Calm,Calm,-,N/A,,Clear,0,2013-05-14 07:56:00
3:56 AM,54.0,46.9,77,29.72,10.0,Calm,Calm,-,N/A,,Clear,0,2013-05-14 08:56:00
4:56 AM,55.0,46.0,72,29.69,10.0,Calm,Calm,-,N/A,,Clear,0,2013-05-14 09:56:00
5:56 AM,53.1,46.9,80,29.68,10.0,Calm,Calm,-,N/A,,Clear,0,2013-05-14 10:56:00
6:56 AM,55.9,48.9,77,29.65,10.0,Calm,Calm,-,N/A,,Partly Cloudy,0,2013-05-14 11:56:00
7:56 AM,68.0,52.0,56,29.63,10.0,South,9.2,-,N/A,,Partly Cloudy,190,2013-05-14 12:56:00
8:56 AM,75.9,52.0,43,29.60,10.0,SSW,9.2,-,N/A,,Clear,200,2013-05-14 13:56:00
9:56 AM,82.0,51.1,34,29.58,10.0,SW,8.1,19.6,N/A,,Clear,220,2013-05-14 14:56:00
10:56 AM,88.0,46.0,23,29.57,10.0,WSW,15.0,25.3,N/A,,Clear,240,2013-05-14 15:56:00
11:56 AM,93.0,46.0,20,29.57,10.0,WNW,18.4,27.6,N/A,,Clear,290,2013-05-14 16:56:00
12:56 PM,89.1,48.0,24,29.59,10.0,WNW,16.1,-,N/A,,Clear,300,2013-05-14 17:56:00
1:56 PM,93.0,48.9,22,29.59,10.0,NW,24.2,27.6,N/A,,Clear,320,2013-05-14 18:56:00
2:56 PM,93.0,46.9,20,29.61,10.0,NW,24.2,33.4,N/A,,Clear,320,2013-05-14 19:56:00
3:56 PM,93.0,46.0,20,29.62,10.0,NNW,19.6,27.6,N/A,,Clear,330,2013-05-14 20:56:00
4:56 PM,90.0,44.1,20,29.64,10.0,NNW,27.6,36.8,N/A,,Clear,340,2013-05-14 21:56:00
5:56 PM,87.1,37.0,17,29.67,10.0,NNW,24.2,29.9,N/A,,Clear,340,2013-05-14 22:56:00
6:56 PM,84.0,32.0,15,29.68,10.0,NNW,21.9,28.8,N/A,,Clear,330,2013-05-14 23:56:00
7:56 PM,79.0,33.1,19,29.69,10.0,NNW,15.0,-,N/A,,Clear,340,2013-05-15 00:56:00
8:56 PM,73.9,34.0,23,29.71,10.0,NNW,11.5,-,N/A,,Clear,330,2013-05-15 01:56:00
9:56 PM,68.0,36.0,31,29.74,10.0,NW,8.1,-,N/A,,Clear,320,2013-05-15 02:56:00
10:56 PM,68.0,37.9,33,29.78,10.0,North,16.1,-,N/A,,Clear,350,2013-05-15 03:56:00
11:56 PM,64.9,43.0,45,29.80,10.0,North,11.5,-,N/A,,Clear,10,2013-05-15 04:56:00